User: anonymous   Login
Location: Unspecified
(0.0000°N, 0.0000°E)
Time: 15:15:49
(UTC+00:00)
Language:

Envisat - Orbit

View from above orbital plane
View from above orbital plane
View from above satellite
View from above satellite

Ground track
Ground track

The orbit data is extracted from the following two-line orbital elements,

1 27386U 02009A   19144.55856565 -.00000023  00000-0  58909-5 0  9993
2 27386  98.1508 166.8681 0001303  89.2838  21.7231 14.37948973902585
Epoch (UTC): 24 May 2019 13:24:20
Eccentricity: 0.0001303
inclination: 98.1508°
perigee height: 764 km
apogee height: 766 km
right ascension of ascending node: 166.8681°
argument of perigee: 89.2838°
revolutions per day: 14.37948973
mean anomaly at epoch: 21.7231°
orbit number at epoch: 90258

The dashed part of the orbit path shows where the satellite is in the earth's shadow,  

DLR